[[{"header":{"parameterUnit":"m.s-1","parameterCategory":1,"la1":30.2991,"la2":30.254,"lo1":-89.0895,"lo2":-89.0444,"dy":0.0017,"dx":0.0017,"nx":28,"ny":28,"refTime":"2024-07-02T21:00:00:Z","depth":0,"parameterNumber":2,"parameterNumberName":"U-component_of_WINDS"},"data":[0,0,0,0,0,0,0,0,0,0,0,0,0,0,0,0,0,0,0,0,0,0,0,0,0,0,0,0,0,0,0,0,0,0,0,0,0,0,0,0,0,0,0,0,0,0,0,0,0,0,0,0,0,0,0,0,0,0,-2.596,-2.596,0,-2.5961,-2.5961,-2.5961,-2.5906,-2.5904,-2.5903,-2.5901,-2.5903,-2.5904,-2.5906,0,0,0,0,0,0,0,0,0,0,0,0,0,-2.5914,-2.5915,-2.596,-2.596,-2.596,-2.5961,-2.5961,-2.5961,-2.5906,-2.5904,-2.5902,-2.5901,-2.5902,-2.5904,-2.5906,0,0,0,0,0,0,0,0,0,0,0,0,0,-2.5926,-2.5915,-2.596,-2.5933,-2.5931,-2.5961,-2.5961,-2.5961,-2.5906,-2.5904,-2.5902,-2.59,-2.5902,-2.5904,-2.5906,-2.5963,0,0,-2.5912,-2.5913,0,0,0,0,0,0,0,0,-2.5926,-2.5928,-2.5937,-2.5935,-2.5932,-2.5931,-2.5945,-2.5961,-2.5907,-2.5916,-2.5901,-2.5899,-2.5914,-2.5915,-2.592,-2.5963,-2.5963,-2.5913,-2.5914,-2.5915,-2.5915,0,0,0,0,0,0,0,-2.5925,-2.5928,-2.596,-2.5937,-2.5934,-2.5921,-2.5921,-2.5948,-2.5927,-2.5915,-2.5911,-2.5911,-2.5912,-2.5918,-2.5919,-2.5963,-2.5912,-2.5914,-2.5916,-2.5916,-2.6054,-2.6056,0,0,0,0,0,0,-2.5927,-2.5927,-2.596,-2.596,-2.5923,-2.5924,-2.5923,-2.5934,-2.5927,-2.5923,-2.5913,-2.5909,-2.5915,-2.5917,-2.5919,-2.5987,-2.5915,-2.5917,-2.5918,-2.6051,-2.6054,-2.6057,0,0,0,0,0,0,-2.5927,-2.5931,-2.596,-2.5943,-2.5946,-2.5927,-2.5939,-2.5935,-2.594,-2.5925,-2.5922,-2.5923,-2.5914,-2.5916,-2.5953,-2.5986,-2.5918,-2.5919,-2.6049,-2.6052,-2.6056,-2.6121,0,0,0,0,0,0,-2.5926,-2.5931,-2.5952,-2.5944,-2.5947,-2.5993,-2.5941,-2.5936,-2.5944,-2.5938,-2.5933,-2.5931,-2.5912,-2.595,-2.5955,-2.5988,-2.5921,-2.6046,-2.605,-2.6055,-2.6116,-2.6126,-2.6136,0,0,0,0,0,-2.5924,-2.597,-2.5953,-2.5958,-2.5972,-2.5995,-2.5997,-2.5975,-2.5947,-2.5968,-2.5959,-2.5931,-2.5981,-2.5954,-2.5959,-2.5993,-2.6043,-2.6049,-2.6054,-2.6112,-2.6124,-2.6135,0,0,0,0,0,0,-2.5983,-2.5968,-2.595,-2.5994,-2.5996,-2.5986,-2.6012,-2.5989,-2.5999,-2.5994,-2.5966,-2.5965,-2.6006,-2.6003,-2.5973,-2.6048,-2.6007,-2.6014,-2.6049,-2.6061,-2.6071,-2.6072,-2.5923,0,0,0,0,0,-2.6001,-2.602,-2.6007,-2.6048,-2.605,-2.6031,-2.604,-2.6023,-2.6024,-2.6025,-2.6018,-2.6021,-2.6037,-2.6049,-2.6063,-2.6115,-2.6114,-2.6141,-2.615,-2.6159,-2.6165,-2.6194,-2.6207,-2.6075,-2.6075,-2.6074,0,0,-2.6039,-2.6033,-2.6047,-2.6059,-2.6059,-2.6081,-2.6032,-2.6056,-2.6073,-2.6028,-2.6063,-2.6058,-2.6059,-2.6104,-2.6123,-2.6102,-2.6201,-2.6165,-2.6172,-2.6174,-2.6201,-2.6214,-2.6225,-2.6078,-2.6078,-2.6077,0,0,-2.6119,-2.6116,-2.615,-2.6151,-2.6151,-2.6139,-2.6147,-2.614,-2.6136,-2.6169,-2.6137,-2.6156,-2.6185,-2.6187,-2.6193,-2.6275,-2.625,-2.628,-2.6332,-2.6361,-2.6371,-2.638,-2.6412,-2.6423,-2.6287,-2.6287,-2.6287,0,-2.6166,-2.6197,-2.6171,-2.6198,-2.6205,-2.6166,-2.6202,-2.6204,-2.6209,-2.6215,-2.6191,-2.6227,-2.6225,-2.6271,-2.6291,-2.6296,-2.6306,-2.6281,-2.6372,-2.6381,-2.6389,-2.6418,-2.643,-2.6291,-2.629,-2.629,-2.6289,0,-2.6255,-2.6277,-2.6305,-2.6312,-2.6321,-2.6353,-2.6333,-2.6346,-2.6328,-2.6318,-2.6354,-2.635,-2.6363,-2.6373,-2.6355,-2.6416,-2.6404,-2.6376,-2.6335,-2.6406,-2.6433,-2.6444,-2.6296,-2.6295,-2.6294,-2.6293,0,0,-2.6373,-2.6365,-2.6376,-2.6379,-2.6377,-2.6394,-2.6423,-2.6437,-2.6449,-2.6454,-2.648,-2.6505,-2.648,-2.6486,-2.6468,-2.6493,-2.6561,-2.6463,-2.6462,-2.6483,-2.6631,-2.6653,-2.6666,-2.6544,-2.6546,-2.6548,-2.6631,0,-2.6452,-2.6503,-2.6481,-2.6534,-2.6555,-2.6519,-2.6545,-2.6547,-2.6538,-2.6556,-2.6546,-2.6566,-2.653,-2.6534,-2.6556,-2.6548,-2.6591,-2.6541,-2.6569,-2.657,-2.6572,-2.668,-2.6704,-2.6783,-2.6642,-2.6644,-2.6645,0,-2.6552,-2.6561,-2.6617,-2.6612,-2.662,-2.6644,-2.6655,-2.6671,-2.6673,-2.6665,-2.6673,-2.665,-2.668,-2.6637,-2.6679,-2.6646,-2.6656,-2.6654,-2.6656,-2.666,-2.6613,-2.6688,-2.6807,-2.682,-2.6661,-2.666,-2.6659,0,-2.6635,-2.6661,-2.6698,-2.6701,-2.6696,-2.6714,-2.6713,-2.6712,-2.6722,-2.6732,-2.6739,-2.6752,-2.6759,-2.6771,-2.6752,-2.6723,-2.6798,-2.6753,-2.6793,-2.6794,-2.6812,-2.6812,-2.6936,-2.6816,-2.6815,-2.6815,-2.6815,0,-2.6726,-2.6762,-2.6735,-2.6758,-2.6798,-2.6772,-2.6812,-2.6807,-2.6807,-2.6829,-2.6798,-2.6819,-2.6793,-2.6812,-2.6798,-2.6836,-2.6839,-2.6835,-2.6831,-2.6839,-2.684,-2.6846,-2.6841,-2.6818,-2.6818,-2.6817,-2.6816,0,-2.6826,-2.6809,-2.6848,-2.684,-2.6839,-2.6868,-2.6862,-2.6883,-2.6873,-2.6901,-2.6906,-2.689,-2.6911,-2.6894,-2.6914,-2.6905,-2.6956,-2.6943,-2.6956,-2.6953,-2.6995,-2.6992,-2.7129,-2.7147,-2.7013,-2.7014,-2.7016,0,-2.6887,-2.6914,-2.6909,-2.6922,-2.6923,-2.6943,-2.6953,-2.6929,-2.6941,-2.6946,-2.6967,-2.6985,-2.6999,-2.7035,-2.7025,-2.7041,-2.703,-2.7077,-2.7032,-2.704,-2.7033,-2.7033,-2.7036,-2.7087,-2.7088,-2.709,-2.7091,0,-2.6997,-2.6988,-2.7003,-2.7017,-2.703,-2.7039,-2.7046,-2.7058,-2.7034,-2.7049,-2.707,-2.7081,-2.7102,-2.7121,-2.7134,-2.7133,-2.7109,-2.7105,-2.7115,-2.7124,-2.7131,-2.713,-2.6983,-2.7102,-2.7101,-2.71,-2.7099,-2.7099,-2.7081,-2.7104,-2.7104,-2.7123,-2.7126,-2.7133,-2.7153,-2.7146,-2.7163,-2.7178,-2.7163,-2.7189,-2.7192,-2.7206,-2.7209,-2.723,-2.721,-2.7225,-2.7229,-2.7233,-2.7241,-2.7126,-2.7231,-2.7231,-2.7231,-2.723,-2.723,0,-2.7191,-2.719,-2.7207,-2.7218,-2.7234,-2.7208,-2.7215,-2.7229,-2.7253,-2.7257,-2.7271,-2.7296,-2.7315,-2.7307,-2.7324,-2.7342,-2.7332,-2.7348,-2.7347,-2.7348,-2.7256,-2.7246,-2.7356,-2.7356,-2.7356,-2.7356,-2.7356,-2.7356,-2.7251,-2.7289,-2.728,-2.7319,-2.7317,-2.7343,-2.7349,-2.7356,-2.7359,-2.7389,-2.7404,-2.7399,-2.7399,-2.7415,-2.7432,-2.7429,-2.7438,-2.7458,-2.7452,-2.7366,-2.7354,-2.7342,-2.7333,-2.746,-2.746,-2.7542,-2.7543,-2.7544]},{"header":{"parameterUnit":"m.s-1","parameterCategory":1,"la1":30.2991,"la2":30.254,"lo1":-89.0895,"lo2":-89.0444,"dy":0.0017,"dx":0.0017,"nx":28,"ny":28,"refTime":"2024-07-02T21:00:00:Z","depth":0,"parameterNumber":3,"parameterNumberName":"V-component_of_WINDS"},"data":[0,0,0,0,0,0,0,0,0,0,0,0,0,0,0,0,0,0,0,0,0,0,0,0,0,0,0,0,0,0,0,0,0,0,0,0,0,0,0,0,0,0,0,0,0,0,0,0,0,0,0,0,0,0,0,0,0,0,-2.4389,-2.439,0,-2.4414,-2.4414,-2.4414,-2.4385,-2.4384,-2.4382,-2.4381,-2.4404,-2.4405,-2.4407,0,0,0,0,0,0,0,0,0,0,0,0,0,-2.4314,-2.4316,-2.4389,-2.439,-2.439,-2.4413,-2.4414,-2.4414,-2.4385,-2.4383,-2.4382,-2.4381,-2.4403,-2.4405,-2.4407,0,0,0,0,0,0,0,0,0,0,0,0,0,-2.4344,-2.4316,-2.4389,-2.4378,-2.4377,-2.4413,-2.4414,-2.4414,-2.4385,-2.4383,-2.4382,-2.438,-2.4403,-2.4405,-2.4407,-2.4455,0,0,-2.4415,-2.4416,0,0,0,0,0,0,0,0,-2.4342,-2.4346,-2.4379,-2.4379,-2.4378,-2.4394,-2.4396,-2.4428,-2.4385,-2.4382,-2.4381,-2.4379,-2.4402,-2.4404,-2.4412,-2.4456,-2.4457,-2.4415,-2.4416,-2.4417,-2.4418,0,0,0,0,0,0,0,-2.434,-2.4345,-2.4399,-2.438,-2.4379,-2.4371,-2.4373,-2.4401,-2.4401,-2.4382,-2.438,-2.4384,-2.4401,-2.441,-2.4412,-2.4457,-2.4415,-2.4417,-2.4418,-2.4419,-2.454,-2.4542,0,0,0,0,0,0,-2.434,-2.4344,-2.4398,-2.4399,-2.4356,-2.4374,-2.4376,-2.4391,-2.44,-2.44,-2.4385,-2.4382,-2.4407,-2.441,-2.4413,-2.447,-2.4417,-2.4419,-2.4421,-2.4538,-2.4541,-2.4543,0,0,0,0,0,0,-2.4338,-2.4345,-2.4397,-2.4371,-2.4377,-2.4377,-2.4393,-2.4392,-2.4401,-2.4402,-2.4402,-2.4394,-2.4405,-2.441,-2.4445,-2.447,-2.4421,-2.4423,-2.4536,-2.4539,-2.4542,-2.4583,0,0,0,0,0,0,-2.4336,-2.4344,-2.4363,-2.4372,-2.4379,-2.4429,-2.4395,-2.4394,-2.4406,-2.4402,-2.4411,-2.4411,-2.4404,-2.4441,-2.4447,-2.4472,-2.4425,-2.4534,-2.4538,-2.4541,-2.4579,-2.4587,-2.4593,0,0,0,0,0,-2.4334,-2.4373,-2.4364,-2.4371,-2.4402,-2.4431,-2.4435,-2.4427,-2.4408,-2.4426,-2.4427,-2.4411,-2.4466,-2.4445,-2.4451,-2.4478,-2.4533,-2.4537,-2.454,-2.4576,-2.4585,-2.4593,0,0,0,0,0,0,-2.4367,-2.4374,-2.4364,-2.4408,-2.4419,-2.4426,-2.4449,-2.4437,-2.4453,-2.4449,-2.4438,-2.444,-2.4478,-2.4481,-2.4457,-2.4524,-2.4496,-2.4501,-2.4521,-2.453,-2.4536,-2.4535,-2.4427,0,0,0,0,0,-2.4379,-2.4403,-2.4408,-2.4446,-2.4452,-2.445,-2.4462,-2.4455,-2.4466,-2.447,-2.4473,-2.4483,-2.4503,-2.4516,-2.4534,-2.4579,-2.4581,-2.46,-2.4607,-2.4613,-2.4618,-2.4642,-2.4651,-2.4556,-2.4556,-2.4556,0,0,-2.4405,-2.4412,-2.4428,-2.4453,-2.446,-2.4484,-2.4454,-2.448,-2.4498,-2.4473,-2.4507,-2.451,-2.452,-2.4561,-2.4579,-2.4565,-2.4645,-2.4618,-2.4622,-2.4625,-2.4647,-2.4656,-2.4665,-2.4558,-2.4558,-2.4557,0,0,-2.4466,-2.4473,-2.4506,-2.4515,-2.4527,-2.4525,-2.4533,-2.4541,-2.4542,-2.4576,-2.4559,-2.4578,-2.4612,-2.4621,-2.463,-2.4692,-2.4678,-2.4698,-2.4734,-2.4758,-2.4766,-2.4772,-2.4796,-2.4804,-2.4703,-2.4703,-2.4703,0,-2.4496,-2.4533,-2.4524,-2.4553,-2.4564,-2.4543,-2.4576,-2.4585,-2.4602,-2.461,-2.4594,-2.4636,-2.4642,-2.4684,-2.47,-2.4707,-2.4715,-2.4698,-2.4766,-2.4772,-2.4778,-2.48,-2.4809,-2.4706,-2.4705,-2.4705,-2.4705,0,-2.457,-2.4596,-2.462,-2.4639,-2.4653,-2.4683,-2.4678,-2.4693,-2.4685,-2.4684,-2.4719,-2.4724,-2.4744,-2.4753,-2.4745,-2.4794,-2.4785,-2.4767,-2.4739,-2.479,-2.481,-2.4819,-2.4709,-2.4708,-2.4707,-2.4707,0,0,-2.4653,-2.4667,-2.4676,-2.4684,-2.4696,-2.4715,-2.4744,-2.4763,-2.4777,-2.4789,-2.4813,-2.4842,-2.4826,-2.4835,-2.4828,-2.4848,-2.4899,-2.4828,-2.4828,-2.4842,-2.4954,-2.4968,-2.4978,-2.4889,-2.489,-2.4891,-2.4954,0,-2.4715,-2.4766,-2.4759,-2.4808,-2.4832,-2.4812,-2.4837,-2.4847,-2.4847,-2.4866,-2.4865,-2.4886,-2.4863,-2.4869,-2.4888,-2.4888,-2.4921,-2.4884,-2.4911,-2.4912,-2.4911,-2.4989,-2.5004,-2.5063,-2.4961,-2.4963,-2.4964,0,-2.4793,-2.481,-2.4862,-2.487,-2.488,-2.4903,-2.492,-2.4938,-2.4948,-2.4946,-2.4958,-2.4946,-2.4974,-2.4944,-2.4983,-2.4957,-2.4968,-2.4969,-2.4971,-2.4975,-2.4942,-2.4995,-2.5081,-2.509,-2.4976,-2.4975,-2.4974,0,-2.485,-2.4885,-2.4921,-2.4928,-2.4938,-2.4955,-2.496,-2.4968,-2.498,-2.4995,-2.5003,-2.502,-2.5029,-2.5043,-2.5036,-2.5014,-2.5076,-2.5045,-2.5075,-2.5076,-2.509,-2.509,-2.518,-2.5095,-2.5095,-2.5094,-2.5094,0,-2.492,-2.4953,-2.4946,-2.4969,-2.5005,-2.4995,-2.5031,-2.5033,-2.504,-2.5062,-2.5045,-2.5065,-2.5054,-2.5074,-2.5068,-2.5101,-2.5105,-2.5105,-2.5103,-2.5107,-2.5107,-2.5115,-2.5111,-2.5097,-2.5096,-2.5096,-2.5095,0,-2.4991,-2.4988,-2.5025,-2.5032,-2.5034,-2.5061,-2.5066,-2.5086,-2.5084,-2.5112,-2.5118,-2.5115,-2.5137,-2.5131,-2.5154,-2.515,-2.5193,-2.5185,-2.519,-2.5189,-2.522,-2.5217,-2.5319,-2.5332,-2.5237,-2.5238,-2.5239,0,-2.5036,-2.5062,-2.5071,-2.5085,-2.5091,-2.5114,-2.5126,-2.5117,-2.5131,-2.5144,-2.5162,-2.5183,-2.5199,-2.5235,-2.5234,-2.5252,-2.5245,-2.528,-2.5248,-2.5251,-2.5247,-2.5247,-2.5249,-2.5287,-2.5288,-2.5289,-2.5289,0,-2.5118,-2.5115,-2.5135,-2.5154,-2.517,-2.5184,-2.5196,-2.5208,-2.52,-2.5216,-2.5238,-2.5251,-2.5275,-2.5296,-2.5312,-2.5316,-2.5301,-2.5299,-2.5307,-2.5312,-2.5315,-2.5315,-2.5209,-2.5297,-2.5296,-2.5296,-2.5295,-2.5295,-2.5179,-2.52,-2.5211,-2.5233,-2.5241,-2.5253,-2.5273,-2.5274,-2.5293,-2.5313,-2.5305,-2.5331,-2.534,-2.536,-2.5366,-2.5386,-2.5373,-2.5384,-2.5387,-2.5391,-2.5395,-2.531,-2.5388,-2.5388,-2.5388,-2.5388,-2.5388,0,-2.5261,-2.5266,-2.5287,-2.5305,-2.5322,-2.5307,-2.532,-2.5335,-2.5359,-2.5368,-2.5385,-2.5411,-2.5431,-2.5431,-2.545,-2.5465,-2.5459,-2.5471,-2.547,-2.5471,-2.5405,-2.5397,-2.5475,-2.5475,-2.5475,-2.5475,-2.5475,-2.5475,-2.5306,-2.5342,-2.534,-2.5379,-2.5384,-2.5411,-2.5419,-2.543,-2.5438,-2.5468,-2.5485,-2.5485,-2.5491,-2.551,-2.5527,-2.5526,-2.5534,-2.5549,-2.5546,-2.5485,-2.5476,-2.5468,-2.546,-2.555,-2.555,-2.5611,-2.5611,-2.5612]}]]